Location: Unspecified
(0.0000°N, 0.0000°E)
Time: 18:52:01
(UTC+00:00)

Transit 4A - Pass Details

Date: 24 November 2019
Orbit: 870 x 975 km, 66.8° (Epoch: 06 December)

Event Time Altitude Azimuth Distance (km) Brightness Sun altitude
Rises 19:12:29 0° 204° (SSW) 3,668 11.7 -20.0°
Reaches altitude 10° 19:15:04 10° 206° (SSW) 2,720 11.0 -20.6°
Maximum altitude 19:21:24 70° 289° (WNW) 1,024 8.2 -22.1°
Enters shadow 19:25:33 23° 9° (N) 1,936 9.3 -23.0°
Drops below altitude 10° 19:27:40 10° 13° (NNE) 2,680 - -23.5°
Sets 19:30:12 0° 15° (NNE) 3,611 - -24.1°
